Theta_e
306 307 310 313 314 314 314 313 312 311 312 313 315 315 316 316 316 315 317 319 317 316 314 315 312 315 319 320 319 319 321 321 321 320 321 319 321 320 332 344 341 343 349 349 337
306 306 307 311 313 314 314 314 314 311 312 313 313 314 314 314 316 320 317 320 319 318 314 313 319 319 319 319 319 321 321 320 318 318 321 320 319 320 330 343 345 348 345 349 339
306 306 307 308 311 314 315 315 314 313 310 313 313 313 314 314 319 322 319 318 319 315 313 318 320 319 320 317 318 317 321 320 320 319 318 320 321 318 333 345 345 345 351 347 340
308 306 307 307 308 312 314 315 315 314 311 310 314 314 315 315 322 323 321 319 320 315 316 319 321 322 321 320 317 319 318 318 319 317 318 320 319 321 333 344 342 335 347 346 344
307 307 307 307 308 309 314 315 315 315 312 310 312 314 314 315 315 323 323 319 318 317 319 321 322 321 322 319 317 319 318 317 318 318 317 317 319 320 321 324 322 323 336 344 346
307 307 307 308 308 309 313 315 316 315 312 310 311 313 314 316 315 319 323 321 315 317 320 320 322 321 320 320 320 318 318 320 319 321 318 318 318 317 321 321 321 323 341 344 345
310 308 307 308 309 309 315 316 316 315 312 311 312 313 314 314 315 321 322 322 315 318 320 319 321 320 319 320 318 319 321 321 321 321 321 318 320 321 321 321 321 322 325 344 346
313 311 308 308 309 312 315 316 315 314 313 312 313 314 317 317 315 317 322 322 319 316 317 320 320 320 319 318 318 321 320 322 321 320 319 320 323 323 320 319 321 326 322 323 340
314 313 311 308 309 313 317 319 318 321 317 314 314 316 319 319 317 315 319 321 321 318 316 317 319 318 317 320 320 319 321 321 321 319 321 321 324 323 320 320 320 321 325 324 324
312 313 311 309 309 312 318 320 320 320 320 317 317 319 321 320 321 317 318 319 319 318 319 319 318 321 319 321 318 321 321 322 323 321 322 322 323 322 320 318 319 319 319 319 320
308 313 311 310 309 314 318 319 318 318 317 318 320 320 319 321 320 321 320 320 320 320 322 318 322 322 322 321 321 320 321 322 323 322 323 323 322 322 320 321 321 321 321 322 319
306 312 310 309 309 317 318 317 316 316 318 317 318 318 318 319 320 321 321 320 320 322 319 321 322 322 320 319 320 321 322 324 323 321 323 322 323 321 322 323 323 323 323 322 323
306 310 311 309 311 318 317 315 315 318 319 317 318 318 318 318 319 320 321 320 321 321 321 322 322 319 320 320 321 322 323 323 323 320 320 322 324 322 323 323 322 322 322 322 322
306 309 309 309 311 313 316 314 315 319 316 315 321 321 320 319 319 318 320 321 320 323 320 321 321 320 320 321 321 323 322 322 321 322 325 321 324 323 324 323 323 322 322 321 321
306 308 309 311 312 312 311 314 315 319 316 315 322 321 321 320 320 321 319 320 323 321 320 322 320 320 321 322 321 323 321 322 322 324 323 322 324 324 323 324 323 320 319 319 321
306 308 311 313 312 312 312 311 319 316 315 321 321 321 321 320 321 320 320 320 319 320 319 322 318 320 322 320 320 320 321 321 320 322 325 325 324 324 325 323 321 318 317 317 318
306 311 312 312 312 314 317 319 316 314 317 322 322 321 320 320 320 320 320 321 322 323 323 322 321 320 319 322 321 321 324 325 326 325 326 323 323 326 321 320 318 317 317 317 318
306 313 313 313 314 314 315 319 313 315 322 320 320 320 321 319 320 317 320 319 318 320 321 323 324 322 321 322 323 323 325 325 326 326 325 322 326 325 318 316 316 316 316 316 316
308 311 312 312 313 313 313 316 313 320 319 319 320 321 320 319 319 318 315 316 316 316 323 323 322 320 319 318 319 322 324 321 324 322 325 325 322 319 316 316 315 316 315 315 315
309 308 311 312 312 311 314 312 319 317 314 317 320 318 320 316 319 321 317 313 314 314 316 318 322 320 320 319 317 320 318 323 322 326 326 324 325 326 318 316 316 315 315 314 314
307 308 311 311 312 312 313 313 315 312 313 315 316 316 314 313 316 318 318 315 313 319 316 318 321 321 320 317 317 318 319 318 319 321 325 325 324 319 316 316 316 314 313 313 313
304 308 308 309 313 307 312 309 309 312 310 312 312 312 313 311 313 314 313 312 310 312 314 315 321 322 320 316 310 312 315 316 321 323 320 322 323 315 315 315 315 313 312 312 312
302 305 306 308 312 310 309 310 310 311 311 311 312 311 310 311 313 313 311 309 310 312 311 311 313 314 312 310 310 312 310 311 313 313 319 321 320 316 314 314 314 312 312 312 312
304 307 305 305 304 307 308 310 311 310 310 309 310 310 311 312 311 313 312 310 308 313 311 310 312 313 312 312 311 311 310 310 312 315 313 312 312 317 316 311 313 313 312 311 311
302 304 303 306 305 305 306 308 310 311 310 308 310 310 310 311 310 311 310 309 308 309 308 309 309 310 310 310 309 310 310 310 311 311 311 311 310 310 310 310 313 312 311 311 309
301 303 302 303 303 305 306 308 309 308 309 309 310 309 309 310 310 310 310 309 309 308 309 307 308 308 307 307 307 308 310 310 310 310 310 310 310 310 313 313 312 311 310 310 309
300 302 302 302 304 305 306 306 307 306 307 307 307 307 308 308 307 307 308 308 308 309 310 309 308 308 307 309 310 309 308 308 307 308 308 310 312 312 312 311 311 310 309 309 308
Wind_Speed
19 16 14 12 11 11 11 10 9 6 5 4 4 5 6 7 8 6 1 6 10 8 7 8 9 11 10 6 5 4 2 4 4 4 1 5 9 3 3 2 7 6 3 4 14
20 17 15 14 12 11 10 10 9 7 5 4 4 5 7 8 8 1 6 8 6 7 6 12 14 11 4 4 2 2 3 5 2 2 6 13 6 12 2 4 6 4 12 6 21
21 18 17 15 13 12 10 9 9 8 5 5 4 5 7 8 3 3 7 8 7 6 12 13 10 8 4 4 3 2 2 3 3 8 8 10 9 2 1 4 7 8 9 8 23
22 19 17 16 14 13 11 9 8 8 6 5 4 4 6 5 2 3 6 10 8 11 14 11 7 5 4 5 4 3 5 4 3 4 3 6 9 5 5 2 5 6 9 13 24
25 21 18 17 15 13 12 10 8 7 5 5 4 4 5 4 4 7 6 7 11 12 11 9 6 4 5 4 5 5 2 5 7 10 8 6 10 4 7 7 4 5 6 16 23
27 24 20 18 16 14 12 11 7 6 5 4 5 5 4 3 6 9 8 7 11 14 11 6 3 2 4 3 3 5 4 6 6 7 4 4 2 6 10 10 7 6 10 17 25
27 26 22 19 17 15 14 9 5 5 4 4 5 6 8 8 8 8 10 10 9 14 11 6 3 2 4 3 3 1 4 5 7 4 3 8 4 8 8 10 13 11 11 16 24
27 26 23 19 17 14 12 7 4 4 4 5 5 6 7 6 8 13 10 13 12 13 11 7 2 3 2 3 1 2 2 5 2 3 1 5 7 8 7 8 14 14 13 14 20
27 26 23 20 16 12 10 8 4 6 5 6 6 5 7 4 7 13 14 12 13 11 8 6 2 3 3 2 2 2 3 3 3 1 1 4 5 4 4 9 16 17 15 14 15
29 26 23 19 14 8 8 5 7 6 4 5 7 4 5 2 3 8 16 11 13 11 7 6 4 3 3 3 2 4 3 2 4 3 2 3 10 5 9 5 6 6 6 9 13
32 27 24 19 12 3 4 4 4 2 7 8 10 13 4 4 9 3 15 16 10 6 6 2 5 10 8 6 2 5 3 6 8 6 4 5 5 8 12 16 15 17 15 12 7
33 28 23 17 8 2 5 4 7 5 11 17 23 25 21 11 6 9 11 9 6 9 5 4 10 9 5 6 6 6 6 8 8 5 8 4 2 9 13 15 16 17 18 15 16
33 28 22 15 4 3 7 8 8 7 4 8 5 5 3 13 12 11 14 10 5 8 10 11 4 6 9 6 7 7 7 3 4 4 2 5 4 7 10 15 17 20 17 18 19
33 27 19 12 3 4 3 8 9 6 3 5 2 2 0 3 6 19 16 8 4 13 7 7 8 9 8 10 9 8 9 5 3 6 6 3 5 5 8 10 14 16 19 20 23
32 24 16 10 7 8 8 6 6 1 5 6 4 4 1 2 6 3 22 13 13 8 6 9 7 9 8 13 10 6 7 7 5 7 4 6 5 7 5 6 9 13 15 17 19
30 20 11 6 10 12 9 3 3 0 4 4 4 6 1 3 3 3 5 5 4 6 3 9 1 4 9 3 10 4 4 3 2 4 7 10 10 8 6 5 7 10 13 15 16
28 13 11 11 13 13 9 3 1 2 6 7 5 8 3 7 7 7 3 3 3 6 11 13 13 2 4 7 4 4 5 7 8 7 9 6 8 5 8 7 7 7 10 13 16
27 7 9 11 12 11 7 2 3 2 3 3 5 5 4 10 5 9 5 5 8 4 3 6 11 6 1 7 8 9 10 8 12 11 10 4 7 7 8 9 6 7 8 11 16
28 7 12 12 12 9 4 1 1 2 2 5 4 3 2 4 5 3 6 3 5 11 2 2 5 1 6 2 2 5 7 2 3 2 5 5 4 4 7 6 5 7 9 13 14
28 13 9 14 12 6 1 2 2 3 2 1 2 2 2 5 4 3 3 2 3 11 2 6 5 6 4 1 10 1 3 3 2 6 10 5 6 4 14 7 3 5 8 10 13
22 8 5 15 8 2 0 1 3 2 1 2 1 1 1 0 0 1 1 3 2 6 11 8 6 9 8 6 5 2 2 3 1 3 7 11 4 6 11 6 3 2 4 8 11
16 5 12 13 2 2 1 4 4 3 1 0 2 2 3 2 1 2 1 3 8 2 2 5 4 8 12 6 2 7 4 3 5 5 1 3 3 7 7 5 1 2 4 7 9
19 8 7 12 2 2 4 3 3 4 2 1 2 1 1 1 1 4 4 3 6 3 3 5 4 3 2 2 3 6 3 4 5 1 11 9 3 7 5 4 3 3 5 8 9
8 4 5 9 7 3 5 2 5 5 1 1 1 2 2 1 3 5 5 1 4 1 5 2 3 5 8 2 1 3 4 5 2 3 5 8 4 9 10 8 7 4 7 11 11
6 2 3 5 3 6 2 3 4 4 5 4 1 2 2 2 2 1 2 1 2 1 1 1 4 4 10 9 6 8 9 8 10 10 8 10 11 8 10 10 3 5 9 12 15
5 4 4 5 5 5 0 1 3 4 4 3 2 2 2 3 2 2 4 3 4 4 2 2 3 2 5 7 8 12 11 11 12 12 13 13 16 5 3 2 4 6 9 13 15
7 4 3 3 3 3 0 2 0 6 3 4 7 3 2 2 5 6 7 2 1 3 6 3 3 3 4 2 5 9 11 14 8 7 8 8 2 6 4 4 6 10 16 16 11
Wind_Direction
8 7 2 358 354 352 352 350 347 331 320 313 311 315 324 326 320 310 203 145 152 158 174 180 165 155 146 141 133 131 140 183 187 199 357 347 352 10 303 215 184 196 252 294 182
9 5 3 359 353 348 344 343 345 338 310 300 304 317 327 332 324 304 172 175 166 180 170 148 139 146 124 131 142 156 197 195 202 244 313 323 326 331 293 214 206 218 247 277 177
8 5 2 359 355 347 340 336 339 339 315 289 299 321 334 344 65 100 165 163 163 166 151 142 137 142 123 145 149 159 217 192 227 250 284 310 310 342 211 221 236 225 225 224 181
7 4 359 356 353 347 338 331 329 333 320 284 286 309 325 344 125 137 156 177 165 152 152 148 151 134 136 164 167 210 241 228 279 256 281 286 301 313 197 264 206 246 246 210 189
8 4 358 354 350 344 337 328 318 319 315 286 273 289 321 299 193 161 155 166 179 169 162 147 149 140 142 153 152 208 233 215 260 273 260 260 258 291 266 238 223 268 232 210 196
7 4 358 352 349 342 333 324 303 297 301 277 268 273 287 259 189 189 169 168 176 174 171 150 119 119 124 151 215 185 253 277 273 265 223 212 264 188 244 238 251 237 206 222 211
4 3 359 352 349 343 338 330 304 289 287 272 261 272 276 257 197 196 193 179 177 183 183 162 85 135 154 165 177 185 285 294 228 232 240 177 172 218 223 229 235 243 244 223 217
359 0 359 352 350 347 350 350 327 298 286 272 267 278 262 241 223 205 191 183 179 183 189 150 17 173 188 136 70 239 204 257 188 195 62 215 239 238 241 231 234 227 224 235 234
356 356 358 352 349 347 352 346 330 311 282 263 265 271 270 260 235 209 203 203 183 194 197 196 262 161 139 169 228 39 241 208 292 44 106 223 237 240 281 278 256 238 238 235 240
356 355 355 351 349 341 350 342 328 320 304 285 267 277 254 204 104 202 194 179 173 164 153 183 166 174 134 203 242 127 147 219 267 156 306 211 258 312 352 1 329 1 307 304 285
356 355 356 351 350 339 354 343 346 347 309 248 270 256 252 162 301 245 193 181 161 155 186 144 215 222 218 212 235 221 225 257 265 231 267 206 259 35 53 66 63 59 45 27 353
356 355 356 354 359 150 53 75 38 316 301 284 276 264 250 250 271 209 193 179 177 202 144 197 248 235 207 187 201 213 246 257 278 227 213 178 172 71 57 58 65 68 59 40 32
357 357 358 358 42 106 94 45 358 330 276 306 307 277 295 218 227 211 198 186 181 191 207 221 231 137 185 187 201 239 230 219 261 123 159 151 188 142 78 65 58 50 49 45 37
356 357 2 8 90 48 84 359 337 325 328 288 3 5 305 177 218 220 206 179 199 225 192 233 243 235 221 243 221 253 211 212 188 188 205 231 201 133 118 83 59 45 37 29 26
355 360 8 30 61 36 333 332 314 336 329 359 33 45 182 212 303 207 209 208 218 182 180 213 207 201 211 224 181 251 176 210 200 206 195 182 227 144 206 86 58 46 42 37 31
358 3 27 63 38 12 348 306 153 162 253 7 27 352 6 22 9 42 172 199 204 175 232 251 220 214 246 202 203 114 140 90 102 180 227 205 225 177 180 132 90 70 43 28 24
3 15 26 25 359 4 359 106 109 203 356 3 350 340 13 360 26 10 57 77 280 225 223 231 241 253 223 239 174 185 198 222 223 217 250 179 208 34 131 105 82 43 30 28 28
4 8 7 359 346 346 359 68 210 19 356 351 339 324 62 12 30 27 82 57 27 355 229 242 242 223 100 242 247 201 218 234 251 246 252 164 208 157 119 102 71 51 33 32 33
2 321 4 356 344 338 349 109 217 202 285 327 322 29 37 16 2 88 63 50 43 7 320 294 244 46 89 41 312 156 213 352 173 63 246 182 103 127 134 102 70 44 35 23 18
352 343 347 357 340 329 71 231 225 234 282 221 239 354 320 7 9 22 126 55 40 43 357 27 298 21 342 191 62 60 86 195 196 234 242 204 200 185 180 146 99 44 23 13 10
351 340 314 342 329 21 100 286 305 298 302 341 197 168 134 246 194 108 86 69 30 295 18 355 350 304 318 23 0 5 152 65 327 305 264 253 214 127 149 138 123 56 22 8 3
353 322 327 350 21 36 77 315 305 288 328 143 148 172 194 168 111 108 98 30 357 332 141 179 184 249 261 328 331 296 264 207 237 246 108 310 248 143 131 143 170 0 0 357 354
336 301 343 356 55 25 326 297 280 347 327 317 195 25 61 182 173 147 161 165 36 79 154 169 194 269 172 189 190 219 158 113 90 84 235 244 234 167 166 215 235 290 340 339 342
347 327 346 49 66 29 356 325 315 317 270 27 115 122 124 169 319 158 154 201 357 92 54 186 220 239 246 347 58 218 214 182 192 206 244 239 259 191 229 268 287 306 335 339 341
8 40 354 326 28 345 287 314 315 320 5 12 137 185 151 192 196 211 154 192 207 332 58 126 256 249 262 267 257 255 251 229 225 250 245 276 246 268 285 288 267 324 326 324 323
18 1 335 282 296 296 264 128 343 343 320 1 10 39 114 206 216 195 185 215 239 155 149 9 267 250 271 270 276 267 261 255 252 254 256 262 271 286 166 180 278 292 299 302 305
358 341 325 287 311 277 211 10 11 351 241 75 356 312 257 323 305 272 224 223 257 207 193 203 221 216 256 332 303 268 256 245 239 226 240 241 267 164 197 252 284 296 302 302 302